Time,TemperatureF,DewpointF,PressureIn,WindDirection,WindDirectionDegrees,WindSpeedMPH,WindSpeedGustMPH,Humidity,HourlyPrecipIn,Conditions,Clouds,dailyrainin,SoftwareType,DateUTC
2013-08-25 00:14:00,-999.0,-99.9,30.15,ESE,120,10.0,15.0,-999,-99.99,,,-99.99,,2013-08-25 04:14:00,
2013-08-25 00:25:00,-999.0,-99.9,30.15,SE,124,10.0,14.0,-999,-99.99,,,-99.99,,2013-08-25 04:25:00,
2013-08-25 00:44:00,-999.0,-99.9,30.15,SE,135,10.0,13.0,-999,-99.99,,,-99.99,,2013-08-25 04:44:00,
2013-08-25 01:03:00,-999.0,-99.9,30.15,SE,133,9.0,14.0,-999,-99.99,,,-99.99,,2013-08-25 05:03:00,
2013-08-25 01:12:00,-999.0,-99.9,30.14,SE,132,7.0,13.0,-999,-99.99,,,-99.99,,2013-08-25 05:12:00,
2013-08-25 01:34:00,-999.0,-99.9,30.14,ESE,119,6.0,10.0,-999,-99.99,,,-99.99,,2013-08-25 05:34:00,
2013-08-25 01:43:00,-999.0,-99.9,30.13,ESE,110,4.0,9.0,-999,-99.99,,,-99.99,,2013-08-25 05:43:00,
2013-08-25 02:03:00,-999.0,-99.9,30.12,ESE,118,4.0,8.0,-999,-99.99,,,-99.99,,2013-08-25 06:03:00,
2013-08-25 02:22:00,-999.0,-99.9,30.12,ESE,110,3.0,6.0,-999,-99.99,,,-99.99,,2013-08-25 06:22:00,
2013-08-25 02:43:00,-999.0,-99.9,30.11,SE,133,4.0,7.0,-999,-99.99,,,-99.99,,2013-08-25 06:43:00,
2013-08-25 03:01:00,-999.0,-99.9,30.10,East,100,4.0,6.0,-999,-99.99,,,-99.99,,2013-08-25 07:01:00,
2013-08-25 03:22:00,-999.0,-99.9,30.10,ENE,70,2.0,3.0,-999,-99.99,,,-99.99,,2013-08-25 07:22:00,
2013-08-25 03:32:00,-999.0,-99.9,30.10,ENE,71,2.0,4.0,-999,-99.99,,,-99.99,,2013-08-25 07:32:00,
2013-08-25 04:12:00,-999.0,-99.9,30.10,NE,51,6.0,9.0,-999,-99.99,,,-99.99,,2013-08-25 08:12:00,
2013-08-25 04:21:00,-999.0,-99.9,30.11,NE,46,5.0,8.0,-999,-99.99,,,-99.99,,2013-08-25 08:21:00,
2013-08-25 04:42:00,-999.0,-99.9,30.12,ENE,58,7.0,11.0,-999,-99.99,,,-99.99,,2013-08-25 08:42:00,
2013-08-25 04:52:00,-999.0,-99.9,30.12,NE,52,6.0,10.0,-999,-99.99,,,-99.99,,2013-08-25 08:52:00,
2013-08-25 05:02:00,-999.0,-99.9,30.13,NE,52,6.0,13.0,-999,-99.99,,,-99.99,,2013-08-25 09:02:00,
2013-08-25 05:22:00,-999.0,-99.9,30.13,NE,53,7.0,11.0,-999,-99.99,,,-99.99,,2013-08-25 09:22:00,
2013-08-25 05:34:00,-999.0,-99.9,30.13,NE,50,7.0,11.0,-999,-99.99,,,-99.99,,2013-08-25 09:34:00,
2013-08-25 05:55:00,-999.0,-99.9,30.13,ENE,61,7.0,11.0,-999,-99.99,,,-99.99,,2013-08-25 09:55:00,
2013-08-25 06:12:00,-999.0,-99.9,30.13,NE,56,8.0,11.0,-999,-99.99,,,-99.99,,2013-08-25 10:12:00,
2013-08-25 06:33:00,-999.0,-99.9,30.14,NE,52,6.0,10.0,-999,-99.99,,,-99.99,,2013-08-25 10:33:00,
2013-08-25 07:12:00,-999.0,-99.9,30.14,ENE,58,5.0,11.0,-999,-99.99,,,-99.99,,2013-08-25 11:12:00,
2013-08-25 07:22:00,-999.0,-99.9,30.14,ENE,63,6.0,11.0,-999,-99.99,,,-99.99,,2013-08-25 11:22:00,
2013-08-25 07:42:00,-999.0,-99.9,30.14,ENE,71,4.0,10.0,-999,-99.99,,,-99.99,,2013-08-25 11:42:00,
2013-08-25 07:52:00,79.0,-99.9,30.14,North,-999,-999.0,-999.0,-999,-99.99,,,-99.99,,2013-08-25 11:52:00,
2013-08-25 08:02:00,-999.0,-99.9,30.15,ENE,58,7.0,10.0,-999,-99.99,,,-99.99,,2013-08-25 12:02:00,
2013-08-25 08:32:00,-999.0,-99.9,30.15,NE,56,6.0,11.0,-999,-99.99,,,-99.99,,2013-08-25 12:32:00,
2013-08-25 08:52:00,-999.0,-99.9,30.16,NE,54,10.0,14.0,-999,-99.99,,,-99.99,,2013-08-25 12:52:00,
2013-08-25 09:02:00,-999.0,-99.9,30.16,ENE,70,7.0,10.0,-999,-99.99,,,-99.99,,2013-08-25 13:02:00,
2013-08-25 09:42:00,-999.0,-99.9,30.17,NE,44,7.0,12.0,-999,-99.99,,,-99.99,,2013-08-25 13:42:00,
2013-08-25 09:52:00,-999.0,-99.9,30.18,NE,42,6.0,11.0,-999,-99.99,,,-99.99,,2013-08-25 13:52:00,
2013-08-25 10:42:00,-999.0,-99.9,30.18,ENE,59,8.0,12.0,-999,-99.99,,,-99.99,,2013-08-25 14:42:00,
2013-08-25 10:52:00,-999.0,-99.9,30.19,NE,50,6.0,11.0,-999,-99.99,,,-99.99,,2013-08-25 14:52:00,
2013-08-25 11:11:00,-999.0,-99.9,30.19,NE,55,9.0,12.0,-999,-99.99,,,-99.99,,2013-08-25 15:11:00,
2013-08-25 11:23:00,-999.0,-99.9,30.19,ENE,60,6.0,10.0,-999,-99.99,,,-99.99,,2013-08-25 15:23:00,
2013-08-25 11:55:00,-999.0,-99.9,30.19,ENE,62,5.0,10.0,-999,-99.99,,,-99.99,,2013-08-25 15:55:00,
2013-08-25 12:24:00,-999.0,-99.9,30.18,NE,55,7.0,11.0,-999,-99.99,,,-99.99,,2013-08-25 16:24:00,
2013-08-25 12:44:00,-999.0,-99.9,30.18,NE,49,6.0,8.0,-999,-99.99,,,-99.99,,2013-08-25 16:44:00,
2013-08-25 12:54:00,-999.0,-99.9,30.18,NE,55,6.0,9.0,-999,-99.99,,,-99.99,,2013-08-25 16:54:00,
2013-08-25 13:04:00,-999.0,-99.9,30.18,NE,38,5.0,9.0,-999,-99.99,,,-99.99,,2013-08-25 17:04:00,
2013-08-25 13:23:00,-999.0,-99.9,30.17,NE,47,5.0,8.0,-999,-99.99,,,-99.99,,2013-08-25 17:23:00,
2013-08-25 13:43:00,-999.0,-99.9,30.17,ENE,58,6.0,10.0,-999,-99.99,,,-99.99,,2013-08-25 17:43:00,
2013-08-25 13:53:00,84.0,-99.9,30.17,North,-999,-999.0,-999.0,-999,-99.99,,,-99.99,,2013-08-25 17:53:00,
2013-08-25 14:03:00,-999.0,-99.9,30.17,ENE,58,7.0,14.0,-999,-99.99,,,-99.99,,2013-08-25 18:03:00,
2013-08-25 14:12:00,-999.0,-99.9,30.16,ENE,68,5.0,11.0,-999,-99.99,,,-99.99,,2013-08-25 18:12:00,
2013-08-25 14:22:00,-999.0,-99.9,30.16,ENE,59,7.0,11.0,-999,-99.99,,,-99.99,,2013-08-25 18:22:00,
2013-08-25 14:32:00,-999.0,-99.9,30.15,ENE,57,8.0,12.0,-999,-99.99,,,-99.99,,2013-08-25 18:32:00,
2013-08-25 14:52:00,-999.0,-99.9,30.14,NE,55,7.0,11.0,-999,-99.99,,,-99.99,,2013-08-25 18:52:00,
2013-08-25 15:02:00,-999.0,-99.9,30.14,ENE,76,6.0,10.0,-999,-99.99,,,-99.99,,2013-08-25 19:02:00,
2013-08-25 15:22:00,-999.0,-99.9,30.13,ENE,57,7.0,10.0,-999,-99.99,,,-99.99,,2013-08-25 19:22:00,
2013-08-25 15:42:00,-999.0,-99.9,30.12,ENE,66,5.0,12.0,-999,-99.99,,,-99.99,,2013-08-25 19:42:00,
2013-08-25 15:53:00,-999.0,-99.9,30.12,ENE,59,6.0,11.0,-999,-99.99,,,-99.99,,2013-08-25 19:53:00,
2013-08-25 16:03:00,-999.0,-99.9,30.12,ENE,70,6.0,10.0,-999,-99.99,,,-99.99,,2013-08-25 20:03:00,
2013-08-25 16:33:00,-999.0,-99.9,30.12,East,80,7.0,11.0,-999,-99.99,,,-99.99,,2013-08-25 20:33:00,
2013-08-25 17:12:00,-999.0,-99.9,30.11,ENE,76,6.0,9.0,-999,-99.99,,,-99.99,,2013-08-25 21:12:00,
2013-08-25 17:34:00,-999.0,-99.9,30.11,East,81,6.0,9.0,-999,-99.99,,,-99.99,,2013-08-25 21:34:00,
2013-08-25 18:24:00,-999.0,-99.9,30.11,SE,141,11.0,14.0,-999,-99.99,,,-99.99,,2013-08-25 22:24:00,
2013-08-25 18:34:00,-999.0,-99.9,30.11,SSE,147,10.0,13.0,-999,-99.99,,,-99.99,,2013-08-25 22:34:00,
2013-08-25 18:43:00,-999.0,-99.9,30.12,SE,144,11.0,14.0,-999,-99.99,,,-99.99,,2013-08-25 22:43:00,
2013-08-25 18:54:00,-999.0,-99.9,30.12,SSE,151,11.0,12.0,-999,-99.99,,,-99.99,,2013-08-25 22:54:00,
2013-08-25 19:03:00,-999.0,-99.9,30.13,SSE,155,10.0,11.0,-999,-99.99,,,-99.99,,2013-08-25 23:03:00,
2013-08-25 19:12:00,-999.0,-99.9,30.13,SSE,149,8.0,11.0,-999,-99.99,,,-99.99,,2013-08-25 23:12:00,
2013-08-25 19:34:00,-999.0,-99.9,30.14,East,92,6.0,8.0,-999,-99.99,,,-99.99,,2013-08-25 23:34:00,
2013-08-25 19:43:00,-999.0,-99.9,30.15,East,87,7.0,11.0,-999,-99.99,,,-99.99,,2013-08-25 23:43:00,
2013-08-25 19:53:00,-999.0,-99.9,30.14,SSE,162,9.0,11.0,-999,-99.99,,,-99.99,,2013-08-25 23:53:00,
2013-08-25 20:02:00,-999.0,-99.9,30.15,SSE,161,5.0,6.0,-999,-99.99,,,-99.99,,2013-08-26 00:02:00,
2013-08-25 20:22:00,-999.0,-99.9,30.15,SSE,168,4.0,5.0,-999,-99.99,,,-99.99,,2013-08-26 00:22:00,
2013-08-25 20:42:00,-999.0,-99.9,30.15,SW,235,7.0,8.0,-999,-99.99,,,-99.99,,2013-08-26 00:42:00,
2013-08-25 20:52:00,-999.0,-99.9,30.15,SW,235,5.0,6.0,-999,-99.99,,,-99.99,,2013-08-26 00:52:00,
2013-08-25 21:02:00,-999.0,-99.9,30.15,SW,214,4.0,5.0,-999,-99.99,,,-99.99,,2013-08-26 01:02:00,
2013-08-25 21:32:00,-999.0,-99.9,30.16,WNW,285,4.0,4.0,-999,-99.99,,,-99.99,,2013-08-26 01:32:00,
2013-08-25 22:32:00,-999.0,-99.9,30.17,North,355,4.0,5.0,-999,-99.99,,,-99.99,,2013-08-26 02:32:00,
2013-08-25 23:22:00,-999.0,-99.9,30.18,North,7,5.0,7.0,-999,-99.99,,,-99.99,,2013-08-26 03:22:00,